[Date Prev][Date Next][Thread Prev][Thread Next] - [Date Index][Thread Index][Author Index]

2 Line ISS Keps 6-1



ISS
1 25544U 98067A   01152.10998346  .00027686  00000-0  32687-3 0   257
2 25544  51.5707 169.8348 0017611 108.4500 356.4789 15.60927248144566

----
Via the sarex mailing list at AMSAT.ORG courtesy of AMSAT-NA.
To unsubscribe, send "unsubscribe sarex" to Majordomo@amsat.org



AMSAT Top AMSAT Home